Iowa City, IA

10:45 PM CDT on October 20, 2019 (GMT -0500)
Iowa City Municipal

Weather History for KIOW - July, 2019

Change the Weather History Date:

Saturday, July 13, 2019

  Actual Average Record
Temperature  
Mean Temperature 82 °F 75 °F  
Max Temperature 93 °F 85 °F 99 °F (1957)
Min Temperature 71 °F 65 °F 52 °F (1999)
Degree Days  
Heating Degree Days 0 0  
Month to date heating degree days 0 0  
Since 1 June heating degree days 6 17  
Since 1 July heating degree days 0 0  
Cooling Degree Days 17 10  
Month to date cooling degree days 175 130  
Year to date cooling degree days 419 402  
Since 1 June cooling degree days 373 341  
Growing Degree Days 32 (Base 50)    
Moisture  
Dew Point 69 °F    
Average Humidity 66    
Maximum Humidity 84    
Minimum Humidity 47    
Precipitation  
Precipitation 0.00 in 0.18 in 1.57 in (1992)
Month to date precipitation 0.30 2.33  
Year to date precipitation 24.03 19.03  
Sea Level Pressure  
Sea Level Pressure 30.00 in    
Wind  
Wind Speed 5 mph (NW)    
Max Wind Speed 18 mph    
Max Gust Speed 23 mph    
Visibility 10 miles    
Events      
T = Trace of Precipitation, MM = Missing Value Source: NWS Daily Summary

Daily Weather History Graph

Daily Weather History Graph

Search for Another Location

Airport or City:

Astronomy

Jul. 13, 2019 Rise Set
Actual Time 5:43 AM CDT 8:40 PM CDT
Civil Twilight 5:10 AM CDT 9:13 PM CDT
Nautical Twilight 4:27 AM CDT 9:55 PM CDT
Astronomical Twilight 3:38 AM CDT 10:44 PM CDT
Moon 6:02 PM CDT (7/13) 3:04 AM CDT (7/13)
Length of Visible Light 16h 03m
Length of Day
14h 56m
Waxing Gibbous, 90% of the Moon is Illuminated
Jul 13
Waxing Gibbous
Jul 16
Full
Jul 24
Last Quarter
Jul 31
New
Aug 7
First Quarter

Hourly Weather History & Observations

Time (CDT) Temp. Heat Index Dew Point Humidity Pressure Visibility Wind Dir Wind Speed Gust Speed Precip Events Conditions
12:52 AM 73.9 °F - 66.0 °F 76% 29.94 in 10.0 mi Calm Calm - N/A   Clear
1:52 AM 73.9 °F - 66.9 °F 79% 29.95 in 10.0 mi Calm Calm - N/A   Clear
2:52 AM 72.0 °F - 66.0 °F 81% 29.95 in 10.0 mi Calm Calm - N/A   Clear
3:52 AM 72.0 °F - 66.0 °F 81% 29.96 in 10.0 mi Calm Calm - N/A   Clear
4:52 AM 73.0 °F - 64.9 °F 76% 29.96 in 10.0 mi Calm Calm - N/A   Clear
5:52 AM 72.0 °F - 64.9 °F 78% 29.97 in 10.0 mi South 3.5 mph - N/A   Clear
6:52 AM 73.9 °F - 66.9 °F 79% 29.98 in 10.0 mi Calm Calm - N/A   Clear
7:52 AM 78.1 °F - 68.0 °F 71% 30.01 in 10.0 mi West 6.9 mph - N/A   Mostly Cloudy
8:52 AM 82.9 °F 86.5 °F 69.1 °F 63% 30.02 in 10.0 mi WNW 9.2 mph - N/A   Partly Cloudy
9:52 AM 86.0 °F 90.1 °F 69.1 °F 57% 30.04 in 10.0 mi NW 12.7 mph 17.3 mph N/A   Clear
10:52 AM 88.0 °F 92.1 °F 69.1 °F 53% 30.03 in 10.0 mi NNW 13.8 mph 21.9 mph N/A   Clear
11:52 AM 87.1 °F 92.0 °F 70.0 °F 57% 30.04 in 10.0 mi North 8.1 mph - N/A   Clear
12:52 PM 90.0 °F 95.4 °F 70.0 °F 52% 30.02 in 10.0 mi Variable 4.6 mph - N/A   Clear
1:52 PM 91.0 °F 97.6 °F 71.1 °F 52% 29.99 in 10.0 mi SSE 10.4 mph - N/A   Clear
2:52 PM 91.9 °F 97.4 °F 70.0 °F 48% 30.01 in 10.0 mi South 5.8 mph - N/A   Clear
3:52 PM 90.0 °F 92.8 °F 66.9 °F 46% 30.01 in 10.0 mi WSW 3.5 mph - N/A   Partly Cloudy
4:52 PM 91.9 °F 95.9 °F 68.0 °F 45% 30.00 in 10.0 mi Variable 4.6 mph - N/A   Clear
5:52 PM 91.9 °F 95.9 °F 68.0 °F 45% 30.00 in 10.0 mi Calm Calm - N/A   Mostly Cloudy
6:52 PM 91.9 °F 97.4 °F 70.0 °F 48% 29.99 in 10.0 mi NW 3.5 mph - N/A   Partly Cloudy
7:52 PM 90.0 °F 96.4 °F 71.1 °F 54% 30.00 in 10.0 mi North 4.6 mph - N/A   Clear
8:52 PM 86.0 °F 92.2 °F 72.0 °F 63% 30.01 in 10.0 mi North 5.8 mph - N/A   Partly Cloudy
9:52 PM 84.0 °F 89.6 °F 72.0 °F 67% 30.02 in 10.0 mi Calm Calm - N/A   Clear
10:52 PM 84.0 °F 89.6 °F 72.0 °F 67% 30.04 in 10.0 mi North 5.8 mph - N/A   Clear
11:52 PM 82.0 °F 86.3 °F 71.1 °F 69% 30.04 in 10.0 mi NE 6.9 mph - N/A   Clear